Home > Weather > Coventry > Past weeks

Flag for United Kingdom Past Weather in Coventry, England, United Kingdom — Yesterday and Last 2 Weeks

Now
59 °F

Passing clouds.


Feels Like: 58 °F
Forecast: 51 / 66 °F
Wind: 6 mph from Northwest

Location: Coventry Airport

Current Time: Jul 30, 2016 at 2:59:35 AM

Latest Report: Jul 30, 2016 at 1:50 AM


Visibility: N/A

Pressure: 29.89 "Hg

Humidity: 88%

Dew Point: 55 °F

Location of CoventryLocation

Past Weather in Coventry — Graph

°F

Coventry Temperature Yesterday

Maximum temperature yesterday: 68 °F (at 4:20 PM)
Minimum temperature yesterday: 61 °F (at 1:20 AM)
Average temperature yesterday: 63 °F

High & Low Weather Summary for the Past Weeks

 TemperatureHumidityPressure
High91 °F (Jul 19, 3:20 PM)94% (Jul 15, 2:50 PM)30.30 "Hg (Jul 15, 2:50 PM)
Low52 °F (Jul 26, 1:50 AM)37% (Jul 20, 4:20 PM)29.68 "Hg (Jul 20, 8:50 AM)
Average70 °F69%30.04 "Hg
* Reported Jul 15 1:20 AM — Jul 30 1:50 AM, Coventry, Weather by CustomWeather, © 2016

Note: Actual official high and low records may vary slightly from our data, if they occured in-between our weather recording intervals... More about our weather records

Advertising

Coventry Weather History for the Previous 24 Hours

Scroll right to see more
 ConditionsComfort  
Time TempWeatherWind HumidityBarometerVisibility
1:50 AM
Sat, Jul 30
59 °FPassing clouds.6 mph88%29.89 "HgN/A
1:20 AM61 °FPassing clouds.8 mph83%29.89 "HgN/A
12:50 AM61 °FPassing clouds.6 mph83%29.89 "HgN/A
12:20 AM61 °FPassing clouds.5 mph88%29.89 "HgN/A
11:50 PM
Fri, Jul 29
63 °FPassing clouds.6 mph83%29.89 "HgN/A
11:20 PM63 °FPassing clouds.5 mph88%29.89 "HgN/A
10:50 PM63 °FPassing clouds.5 mph88%29.89 "HgN/A
10:20 PM63 °FPassing clouds.3 mph88%29.89 "HgN/A
9:50 PM63 °FPartly sunny.5 mph88%29.89 "HgN/A
9:20 PM63 °FPartly sunny.3 mph94%29.86 "HgN/A
8:50 PM64 °FPartly sunny.5 mph88%29.86 "HgN/A
8:20 PM63 °FScattered clouds.3 mph94%29.86 "HgN/A
7:50 PM63 °FScattered clouds.3 mph94%29.86 "HgN/A
7:20 PM63 °FScattered clouds.3 mph94%29.86 "HgN/A
6:50 PM63 °FScattered clouds.3 mph94%29.86 "Hg5 mi
6:20 PM64 °FLight rain. Partly sunny.10 mph83%29.86 "Hg3 mi
5:50 PM68 °FScattered showers. Scattered clouds.9 mph69%29.83 "HgN/A
5:20 PM68 °FScattered showers. Scattered clouds.8 mph69%29.83 "HgN/A
4:20 PM68 °FScattered showers. Scattered clouds.10 mph69%29.83 "HgN/A
Weather by CustomWeather, © 2016

See weather overviewHow to use our weather pages